TimeEET,TemperatureF,Dew PointF,Humidity,Sea Level PressureIn,VisibilityMPH,Wind Direction,Wind SpeedMPH,Gust SpeedMPH,PrecipitationIn,Events,Conditions,WindDirDegrees,DateUTC
12:50 AM,39.2,28.4,65,30.06,6.2,NE,16.1,-,N/A,,Mostly Cloudy,50,2013-03-08 22:50:00
1:50 AM,39.2,30.2,70,30.06,6.2,ENE,11.5,-,N/A,,Mostly Cloudy,70,2013-03-08 23:50:00
2:00 AM,39,30,59,30.10,9,ENE,11.5,,,,Partly Cloudy,70,2013-03-09 00:00:00
2:50 AM,39.2,30.2,70,30.04,6.2,ENE,11.5,-,N/A,,Mostly Cloudy,70,2013-03-09 00:50:00
3:50 AM,37.4,30.2,75,30.04,6.2,ENE,8.1,-,N/A,,Mostly Cloudy,60,2013-03-09 01:50:00
4:50 AM,37.4,30.2,75,30.04,6.2,ENE,5.8,-,N/A,,Mostly Cloudy,70,2013-03-09 02:50:00
5:50 AM,37.4,30.2,75,30.04,6.2,Variable,2.3,-,N/A,,Mostly Cloudy,0,2013-03-09 03:50:00
6:50 AM,37.4,30.2,75,30.04,6.2,NNW,3.5,-,N/A,,Mostly Cloudy,340,2013-03-09 04:50:00
7:50 AM,39.2,30.2,70,30.04,6.2,NE,4.6,-,N/A,,Mostly Cloudy,40,2013-03-09 05:50:00
8:00 AM,39,30,60,30.09,12,NE,4.6,,,,Scattered Clouds,40,2013-03-09 06:00:00
8:50 AM,42.8,30.2,61,30.04,6.2,East,8.1,-,N/A,,Mostly Cloudy,80,2013-03-09 06:50:00
9:50 AM,44.6,28.4,53,30.04,6.2,ENE,6.9,-,N/A,,Mostly Cloudy,70,2013-03-09 07:50:00
10:50 AM,44.6,28.4,53,30.01,6.2,NE,6.9,-,N/A,,Mostly Cloudy,50,2013-03-09 08:50:00
11:50 AM,48.2,26.6,43,30.01,6.2,East,10.4,-,N/A,,Mostly Cloudy,80,2013-03-09 09:50:00
12:50 PM,48.2,26.6,43,29.95,6.2,NE,5.8,-,N/A,,Scattered Clouds,40,2013-03-09 10:50:00
1:50 PM,50.0,24.8,37,29.95,6.2,East,6.9,-,N/A,,Scattered Clouds,80,2013-03-09 11:50:00
2:00 PM,51,26,25,29.96,12,East,6.9,,,,Partly Cloudy,90,2013-03-09 12:00:00
2:50 PM,51.8,26.6,38,29.92,6.2,East,6.9,-,N/A,,Scattered Clouds,90,2013-03-09 12:50:00
3:50 PM,50.0,23.0,35,29.92,6.2,East,5.8,-,N/A,,Scattered Clouds,100,2013-03-09 13:50:00
4:50 PM,50.0,23.0,35,29.92,6.2,East,3.5,-,N/A,,Scattered Clouds,80,2013-03-09 14:50:00
5:50 PM,48.2,23.0,37,29.92,6.2,North,2.3,-,N/A,,Scattered Clouds,10,2013-03-09 15:50:00
6:50 PM,46.4,24.8,43,29.95,6.2,WNW,3.5,-,N/A,,Scattered Clouds,300,2013-03-09 16:50:00
7:50 PM,41.0,26.6,57,29.95,-9999.0,WSW,5.8,-,N/A,,Clear,250,2013-03-09 17:50:00
8:00 PM,41,27,46,30.01,12,WSW,5.8,,,,Clear,250,2013-03-09 18:00:00
8:50 PM,35.6,26.6,70,29.95,-9999.0,SW,4.6,-,N/A,,Clear,220,2013-03-09 18:50:00
9:50 PM,35.6,24.8,65,29.95,-9999.0,SW,8.1,-,N/A,,Clear,230,2013-03-09 19:50:00
10:50 PM,33.8,24.8,70,29.95,-9999.0,WSW,6.9,-,N/A,,Clear,240,2013-03-09 20:50:00
11:50 PM,33.8,24.8,70,29.95,-9999.0,West,4.6,-,N/A,,Clear,270,2013-03-09 21:50:00